Regional Weather Roundup
Issued by NWS

Home | Current Version | Previous Version | Text Only | Print | Product List | Glossary Off
Versions: 1 2 3 4 5 6 7 8 9 10 11 12 13 14 15 16 17 18 19 20 21 22 23 24 25 26 27

000
ASUS45 KCYS 191010
RWRWY

WYOMING REGIONAL WEATHER ROUNDUP
NATIONAL WEATHER SERVICE CHEYENNE WY
400 AM MDT SAT AUG 19 2017

NOTE:  "FAIR" INDICATES FEW OR NO CLOUDS BELOW 12,000 FEET
WITH NO SIGNIFICANT WEATHER AND/OR OBSTRUCTIONS TO VISIBILITY.

WYZ001-191100-
YELLOWSTONE NATIONAL PARK

CITY           SKY/WX    TMP DP  RH WIND       PRES   REMARKS
LK YELLOWSTONE   N/A     37  34  89 NW3       30.29F
W YELLOWSTONE  NOT AVBL

$$
WYZ002>013-054>058-071-098>099-191100-
NORTHERN WYOMING

CITY           SKY/WX    TMP DP  RH WIND       PRES   REMARKS
JACKSON        FAIR      43  33  68 N5        30.23R
CODY           FAIR      70  31  23 SW3       30.03F
GREYBULL       FAIR      59  39  47 SE5       29.94F
WORLAND        FAIR      57  33  40 SE6       29.97S
SHERIDAN       FAIR      56  41  57 S7        29.92S
BUFFALO        FAIR      66  31  27 W5        29.99F
GILLETTE       FAIR      66  41  40 S15       29.94F
HULETT         FAIR      70  41  35 SW7       29.95F
NEWCASTLE      FAIR      66  37  34 E7        29.98S

$$
WYZ014>020-022>026-101>103-191100-
CENTRAL WYOMING

CITY           SKY/WX    TMP DP  RH WIND       PRES   REMARKS
BIG PINEY      FAIR      40  29  64 NE5       30.25F
PINEDALE       FAIR      37  32  81 NW8       30.26F WCI  31
DUBOIS         FAIR      46  30  53 NW14      30.22S
LANDER           N/A    N/A N/A N/A MISG      30.07F
RIVERTON       FAIR      63  32  31 W14       30.07F
CASPER         FAIR      54  37  52 W9        30.05F
DOUGLAS        FAIR      51  47  86 NW6       30.03S

$$
WYZ021-027>030-104>119-191100-
SOUTHERN WYOMING

CITY           SKY/WX    TMP DP  RH WIND       PRES   REMARKS
EVANSTON       FAIR      56  32  40 SE7       30.27F
KEMMERER         N/A     52  28  40 W3        30.28S
FORT BRIDGER   FAIR      58  27  29 SW10      30.29F
ROCK SPRINGS   FAIR      57  28  33 SW8       30.23S
RAWLINS        FAIR      61  29  29 W9        30.20S
SARATOGA       FAIR      50  36  57 S10       30.24S
LARAMIE        FAIR      47  36  65 SE12      30.23F
CHEYENNE       FAIR      58  44  60 W10       30.15S
TORRINGTON     FAIR      63  47  55 SE9       29.98F
PINE BLUFFS    FAIR      63  52  67 S13       30.08S

$$




USA.gov is the U.S. government's official web portal to all federal, state and local government web resources and services.